Muscle Shoals, AL

6:47 AM CDT on April 30, 2017 (GMT -0500)
Northwest Alabama Regional

Weather History for KMSL - April, 2014

Change the Weather History Date:

Sunday, April 27, 2014

  Actual Average Record
Temperature  
Mean Temperature 65 °F 65 °F  
Max Temperature 73 °F 76 °F 94 °F (1925)
Min Temperature 56 °F 53 °F 30 °F (1919)
Degree Days  
Heating Degree Days 0 3  
Month to date heating degree days 134 153  
Since 1 July heating degree days 3348 3066  
Cooling Degree Days 0 3  
Month to date cooling degree days 31 43  
Year to date cooling degree days 31 56  
Growing Degree Days 15 (Base 50)    
Moisture  
Dew Point 61 °F    
Average Humidity 78    
Maximum Humidity 87    
Minimum Humidity 68    
Precipitation  
Precipitation 0.73 in 0.15 in 2.92 in (2011)
Month to date precipitation 4.23 3.92  
Year to date precipitation 12.54 17.95  
Snow  
Snow 0.00 in - - ()
Month to date snowfall 0.0  
Since 1 July snowfall 1.4  
Snow Depth 0.00 in    
Sea Level Pressure  
Sea Level Pressure 29.87 in    
Wind  
Wind Speed 7 mph (SE)    
Max Wind Speed 22 mph    
Max Gust Speed 29 mph    
Visibility 7 miles    
Events Rain , Thunderstorm    
T = Trace of Precipitation, MM = Missing Value Source: NWS Daily Summary

Daily Weather History Graph

Daily Weather History Graph

Search for Another Location

Airport or City:

Trip Planner

Search our weather history database for the weather conditions in past years. The results will help you decide how hot, cold, wet, or windy it might be!

Date:

Astronomy

Apr. 27, 2014 Rise Set
Actual Time 6:04 AM CDT 7:32 PM CDT
Civil Twilight 5:37 AM CDT 7:59 PM CDT
Nautical Twilight 5:05 AM CDT 8:31 PM CDT
Astronomical Twilight 4:32 AM CDT 9:04 PM CDT
Moon 4:59 AM CDT (4/27) 6:09 PM CDT (4/27)
Length of Visible Light 14h 21m
Length of Day
13h 27m
Waning Crescent, 3% of the Moon is Illuminated
Apr 27
Waning Crescent
Apr 29
New
May 6
First Quarter
May 14
Full
May 21
Last Quarter

Hourly Weather History & Observations

Time (CDT) Temp. Dew Point Humidity Pressure Visibility Wind Dir Wind Speed Gust Speed Precip Events Conditions
12:53 AM 57.9 °F 53.1 °F 84% 29.91 in 10.0 mi Calm Calm - N/A   Clear
1:53 AM 57.9 °F 52.0 °F 81% 29.89 in 10.0 mi Calm Calm - N/A   Clear
2:53 AM 60.1 °F 53.1 °F 78% 29.88 in 10.0 mi East 3.5 mph - N/A   Clear
4:53 AM 60.1 °F 53.1 °F 78% 29.88 in 10.0 mi East 4.6 mph - N/A   Clear
5:53 AM 60.1 °F 54.0 °F 80% 29.89 in 10.0 mi East 4.6 mph - N/A   Clear
6:53 AM 62.1 °F 55.9 °F 80% 29.91 in 9.0 mi ESE 4.6 mph - N/A   Clear
7:53 AM 64.9 °F 59.0 °F 81% 29.89 in 8.0 mi ESE 6.9 mph - N/A   Clear
8:53 AM 72.0 °F 63.0 °F 73% 29.88 in 8.0 mi SE 6.9 mph - N/A   Clear
9:53 AM 73.0 °F 64.0 °F 73% 29.89 in 6.0 mi SSE 9.2 mph - N/A   Haze
10:50 AM 73.4 °F 62.6 °F 69% 29.94 in 8.0 mi South 9.2 mph - N/A   Mostly Cloudy
11:53 AM 70.0 °F 63.0 °F 78% 29.92 in 6.0 mi South 6.9 mph - N/A   Haze
12:06 PM 69.8 °F 64.4 °F 83% 29.92 in 5.0 mi South 9.2 mph - 0.00 in Rain , Thunderstorm Light Rain
12:21 PM 69.8 °F 64.4 °F 83% 29.91 in 3.0 mi South 5.8 mph - 0.03 in Rain Rain
12:28 PM 69.8 °F 64.4 °F 83% 29.91 in 2.5 mi SSE 9.2 mph - 0.05 in Rain Rain
12:31 PM 69.8 °F 64.4 °F 83% 29.91 in 2.5 mi SSE 8.1 mph - 0.05 in Rain , Thunderstorm Thunderstorms and Rain
12:42 PM 69.8 °F 64.4 °F 83% 29.91 in 3.0 mi SSE 9.2 mph - 0.08 in Rain , Thunderstorm Thunderstorms and Rain
1:53 PM 68.0 °F 64.0 °F 87% 29.92 in 5.0 mi SSE 8.1 mph - 0.05 in Rain Light Rain
3:10 PM 68.0 °F 62.6 °F 83% 29.79 in 6.0 mi ESE 12.7 mph 19.6 mph 0.05 in Rain , Thunderstorm Light Rain
3:31 PM 68.0 °F 62.6 °F 83% 29.79 in 7.0 mi ESE 6.9 mph - 0.06 in Rain Light Rain
3:53 PM 69.1 °F 63.0 °F 81% 29.82 in 10.0 mi SSE 4.6 mph - 0.06 in   Mostly Cloudy
4:05 PM 69.8 °F 62.6 °F 78% 29.88 in 10.0 mi NW 9.2 mph - N/A Thunderstorm Overcast
4:28 PM 68.0 °F 62.6 °F 83% 29.85 in 2.5 mi SSE 8.1 mph - 0.24 in Rain , Thunderstorm Heavy Thunderstorms and Rain
4:42 PM 66.2 °F 62.6 °F 88% 29.84 in 5.0 mi East 9.2 mph - 0.27 in Rain , Thunderstorm Light Thunderstorms and Rain
4:53 PM 66.9 °F 63.0 °F 87% 29.87 in 6.0 mi NNW 4.6 mph - 0.30 in Rain , Thunderstorm Thunderstorms and Rain
5:19 PM 66.2 °F 62.6 °F 88% 29.88 in 5.0 mi Variable 3.5 mph - 0.08 in Rain , Thunderstorm Rain
5:53 PM 66.9 °F 63.0 °F 87% 29.82 in 10.0 mi East 11.5 mph - 0.18 in Rain , Thunderstorm Light Thunderstorms and Rain
6:11 PM 66.2 °F 62.6 °F 88% 29.82 in 10.0 mi East 9.2 mph - 0.00 in   Partly Cloudy
6:53 PM 66.9 °F 63.0 °F 87% 29.81 in 10.0 mi ESE 6.9 mph - 0.00 in   Partly Cloudy
7:53 PM 66.0 °F 62.1 °F 87% 29.83 in 10.0 mi East 4.6 mph - N/A   Overcast
8:53 PM 66.0 °F 61.0 °F 84% 29.79 in 10.0 mi ESE 12.7 mph - N/A   Scattered Clouds
9:53 PM 66.0 °F 61.0 °F 84% 29.77 in 10.0 mi SE 10.4 mph - N/A   Clear
10:53 PM 66.0 °F 61.0 °F 84% 29.79 in 10.0 mi SE 8.1 mph - N/A   Clear